Regional Weather Roundup
Issued by NWS

Home | Current Version | Previous Version | Graphics & Text | Print | Product List | Glossary On
Versions: 1 2 3 4 5 6 7 8 9 10 11 12 13 14 15 16 17 18 19 20 21 22 23 24 25 26 27 28 29 30 31 32 33 34 35 36 37 38 39 40 41 42 43 44 45 46 47 48 49 50
000
ASUS43 KOAX 261202
RWRNE

WEATHER ROUNDUP FOR NEBRASKA
NATIONAL WEATHER SERVICE OMAHA NE
600 AM CST FRI DEC 26 2014

NOTES: SATELLITE DATA IS BEING USED TO AUGMENT CLOUD COVER ABOVE
       12000 FEET.
       "FAIR" INDICATES FEW OR NO CLOUDS BELOW 12,000 FEET WITH NO
       SIGNIFICANT WEATHER AND/OR OBSTRUCTIONS TO VISIBILITY.

  * THESE STATIONS DO NOT REPORT WEATHER SUCH AS RAIN...SNOW OR FOG.

NEZ001>004-019>022-054>056-261300-
NEBRASKA PANHANDLE

CITY           SKY/WX    TMP DP  RH WIND       PRES   REMARKS
SCOTTSBLUFF    LGT SNOW  18  14  84 CALM      29.99R FOG
6HR MIN TEMP:  16; 6HR MAX TEMP:  22; 6HR PCP:  0.02;

ALLIANCE       CLOUDY    16  14  92 N8        29.97R WCI   5
6HR MIN TEMP:  14; 6HR MAX TEMP:  22;

CHADRON        LGT SNOW  20  17  88 NE7       30.03R VSB 3/4 WCI  11
6HR MIN TEMP:  20; 6HR MAX TEMP:  23; 6HR PCP: TRACE;

SIDNEY         FLURRIES  18  15  88 NE13      29.94R WCI   5
6HR MIN TEMP:  18; 6HR MAX TEMP:  21; 6HR PCP: TRACE;

$$

NEZ057>060-069>072-079>082-261300-
SOUTHWEST NEBRASKA

CITY           SKY/WX    TMP DP  RH WIND       PRES   REMARKS
NORTH PLATTE   CLOUDY    24  20  84 N17       29.96R WCI  11
6HR MIN TEMP:  24; 6HR MAX TEMP:  26; 6HR PCP: TRACE;

IMPERIAL       CLOUDY    23  19  85 N17       29.95R WCI   9
6HR MIN TEMP:  23; 6HR MAX TEMP:  26;

LEXINGTON      CLOUDY    27  23  83 N20G25    29.95R WCI  14
MCCOOK         CLOUDY    26  21  81 N18       29.94R WCI  13
6HR MIN TEMP:  26; 6HR MAX TEMP:  30;

$$

NEZ005>010-023>029-035>040-094-261300-
NORTH CENTRAL NEBRASKA

CITY           SKY/WX    TMP DP  RH WIND       PRES   REMARKS
VALENTINE      CLOUDY    21  18  88 N12       30.02S WCI   9
6HR MIN TEMP:  21; 6HR MAX TEMP:  24; 6HR PCP:  0.02;

AINSWORTH      CLOUDY    23  21  92 N14       29.99S WCI  11
BROKEN BOW     CLOUDY    25  21  85 N20G33    29.95R WCI  11
6HR MIN TEMP:  25; 6HR MAX TEMP:  27; 6HR PCP: TRACE;

ORD            CLOUDY    26  21  81 N18G25    29.95R WCI  13
6HR MIN TEMP:  26; 6HR MAX TEMP:  27;

$$

NEZ041-046>049-061>064-073>077-083>087-261300-
SOUTH CENTRAL NEBRASKA

CITY           SKY/WX    TMP DP  RH WIND       PRES   REMARKS
GRAND ISLAND   CLOUDY    27  24  89 N18       29.94R WCI  14
6HR MIN TEMP:  27; 6HR MAX TEMP:  29;

HASTINGS       CLOUDY    27  23  85 N21       29.92R WCI  13
6HR MIN TEMP:  27; 6HR MAX TEMP:  32;

HEBRON         CLOUDY    32  28  86 N10G21    29.90R WCI  24
KEARNEY *      CLOUDY    27  21  80 NW16      29.93R WCI  14
$$

NEZ011>018-030>034-042>045-261300-
NORTHEAST NEBRASKA

CITY           SKY/WX    TMP DP  RH WIND       PRES   REMARKS
NORFOLK        CLOUDY    29  26  89 N21       29.93R WCI  16
6HR MIN TEMP:  29; 6HR MAX TEMP:  33;

BLAIR          CLOUDY    33  32  94 N16G23    29.88R FOG     WCI  23
COLUMBUS *     CLOUDY    28  21  74 N12G28    29.93R WCI  18
TEKAMAH        CLOUDY    34  31  88 N15       29.91R FOG     WCI  24
6HR MIN TEMP:  32; 6HR MAX TEMP:  35;

$$

NEZ050>053-065>068-078-088>093-261300-
SOUTHEAST NEBRASKA

CITY           SKY/WX    TMP DP  RH WIND       PRES   REMARKS
LINCOLN        CLOUDY    33  29  85 N14       29.92R WCI  23
6HR MIN TEMP:  29; 6HR MAX TEMP:  34;

OMAHA EPPLEY   CLOUDY    34  31  88 N12       29.90R WCI  25
6HR MIN TEMP:  31; 6HR MAX TEMP:  34;

FALLS CITY     CLOUDY    31  29  92 NW15      29.88R FOG     WCI  20
6HR MIN TEMP:  31; 6HR MAX TEMP:  39;

$$

NEZ044-045-051>053-067-261300-
OMAHA AREA

CITY           SKY/WX    TMP DP  RH WIND       PRES   REMARKS
OMAHA EPPLEY   CLOUDY    34  31  88 N12       29.90R WCI  25
6HR MIN TEMP:  31; 6HR MAX TEMP:  34;

BLAIR          CLOUDY    33  32  94 N16G23    29.88R FOG     WCI  23
OFFUTT AFB     CLOUDY    34  31  90 N12       29.89R WCI  25
$$


USA.gov is the U.S. government's official web portal to all federal, state and local government web resources and services.